Location: Blairvadach
(56.2780°N, 6.9720°W)
Time: 12:45:51
(UTC+00:00)

Envisat - Pass Details

Date: 20 November 2019
Orbit: 764 x 766 km, 98.1° (Epoch: 08 December)

Event Time Altitude Azimuth Distance (km) Brightness Sun altitude
Rises 18:21:05 0° 170° (S) 3,224 6.2 -17.4°
Reaches altitude 10° 18:23:24 10° 172° (S) 2,302 5.5 -17.7°
Maximum altitude 18:28:28 70° 257° (WSW) 818 3.3 -18.4°
Drops below altitude 10° 18:33:34 10° 341° (NNW) 2,317 5.6 -19.1°
Sets 18:35:54 0° 344° (NNW) 3,248 6.4 -19.4°
